Вернуться в каталог

DMSP 5D-2 F13 DEB

LostPO
NORAD 42294·DEBRIS·🇺🇸 United States

Запущен Mar 24, 1995 с Vandenberg Space Force Base

Loading…

Ближайшие Пролёты (ближайшие 24 часа)

TLE

УстаревшееSource: Space-Track

Эпоха: Feb 9, 2026, 02:06 UTC

1 42294U 95015HL  26040.08772277  .00188804  00000-0  10466-1 0  9990
2 42294  98.8603  96.8879 0011773 223.0370 136.9936 15.12822218556331

Отслеживайте DMSP 5D-2 F13 DEB в реальном времени с AllMySat

Download on the App Store